This is the latest recevied weather packets stored in our database for station/object YM2KV-13. If no packets are shown the sender has not sent any weather packets the latest 10 day(s).
| Time | Temp. | Humidity | Pressure | Rain* | Wind** | Luminosity | Snow |
|---|---|---|---|---|---|---|---|
| 1777889385 | 8.33° C | 84% | 1020.5 hPa | - | - | - | - |
| 1777888785 | 8.33° C | 82% | 1020.5 hPa | - | - | - | - |
| 1777887585 | 8.89° C | 82% | 1020.5 hPa | - | - | - | - |
| 1777886985 | 10° C | 81% | 1020.5 hPa | - | - | - | - |
| 1777886385 | 8.89° C | 85% | 1020.4 hPa | - | - | - | - |
| 1777885785 | 8.89° C | 86% | 1020.5 hPa | - | - | - | - |
| 1777885185 | 8.89° C | 81% | 1020.6 hPa | - | - | - | - |
| 1777884585 | 9.44° C | 85% | 1020.5 hPa | - | - | - | - |
| 1777883985 | 8.89° C | 86% | 1020.5 hPa | - | - | - | - |
| 1777883385 | 9.44° C | 86% | 1020.5 hPa | - | - | - | - |
| 1777882785 | 8.89° C | 84% | 1020.5 hPa | - | - | - | - |
| 1777882185 | 8.89° C | 84% | 1020.4 hPa | - | - | - | - |
| 1777881585 | 9.44° C | 84% | 1020.4 hPa | - | - | - | - |
| 1777880985 | 9.44° C | 84% | 1020.4 hPa | - | - | - | - |
| 1777880385 | 9.44° C | 84% | 1020.3 hPa | - | - | - | - |
| 1777879785 | 9.44° C | 86% | 1020.2 hPa | - | - | - | - |
| 1777879185 | 9.44° C | 87% | 1020.1 hPa | - | - | - | - |
| 1777878585 | 9.44° C | 90% | 1020 hPa | - | - | - | - |
| 1777877985 | 8.89° C | 90% | 1019.9 hPa | - | - | - | - |
| 1777877385 | 8.89° C | 89% | 1019.8 hPa | - | - | - | - |
| 1777876785 | 8.33° C | 90% | 1019.8 hPa | - | - | - | - |
| 1777876185 | 8.89° C | 92% | 1019.7 hPa | - | - | - | - |
| 1777875585 | 8.89° C | 91% | 1019.7 hPa | - | - | - | - |
| 1777874985 | 8.33° C | 90% | 1019.8 hPa | - | - | - | - |
| 1777874385 | 8.33° C | 91% | 1019.7 hPa | - | - | - | - |
* Rain since midnight (hover to see other rain measurements)
** Current wind speed in m/s (hover to see current wind gust speed)